Tracking 17925 objects as of 22-January-2017
HD Live streaming from Space Station
objects crossing your sky now

COSMOS 2251 DEB


10-day predictions


NORAD ID: 37326
Int'l Code: 1993-036BKS
Launch date: June 16, 1993
Source: Commonwealth of Independent States (former USSR) (CIS)
Launch site: PLESETSK MISSILE AND SPACE COMPLEX (PKMTR)

Note: This is SATELLITE DEBRIS
Your satellite tracking list
Your tracking list is empty





NASA's NSSDC Master Catalog

Two Line Element Set (TLE):
1 37326U 93036BKS 17020.22794677 +.00000202 +00000-0 +57355-4 0  9999
2 37326 074.0295 349.5514 0069354 206.4769 153.2844 14.50653480382963
Source of the keplerian elements: AFSPC